Back to catalog

SL-16 DEB

AliveLEO
NORAD 48078·DEBRIS·🇷🇺 Russia

Launched Sep 4, 1996 from Baikonur Cosmodrome

Loading…

Next Passes (next 24 hours)

TLE

StaleSource: Space-Track

Epoch: Mar 16, 2021, 04:22 UTC

1 48078U 96051Q   21075.18227694  .00001278  00000-0  63347-3 0  9996
2 48078  71.0590 233.6196 0132231  41.5133 319.5940 14.14595323901851

Track SL-16 DEB in real time with AllMySat

Download on the App Store